Weather History for Skagway, AK

Change the Weather History Date:

Saturday, January 25, 2014

  Actual Average Record
Temperature  
Mean Temperature 34 °F -  
Max Temperature 39 °F 27 °F 43 °F (1989)
Min Temperature 30 °F 20 °F -5 °F (1984)
Degree Days  
Heating Degree Days 30    
Moisture  
Dew Point 30 °F    
Average Humidity 90    
Maximum Humidity 96    
Minimum Humidity 82    
Precipitation  
Precipitation 0.00 in - - ()
Sea Level Pressure  
Sea Level Pressure 30.31 in    
Wind  
Wind Speed 2 mph (NE)    
Max Wind Speed 6 mph    
Max Gust Speed -    
Visibility 10 miles    
Events      
Averages and records for this station are not official NWS values.
T = Trace of Precipitation, MM = Missing Value Source: NWS Daily Summary

Daily Weather History Graph

Daily Weather History Graph

Search for Another Location

Airport:

Trip Planner

Search our weather history database for the weather conditions in past years. The results will help you decide how hot, cold, wet, or windy it might be!

Date:

Astronomy

Jan. 25, 2014 Rise Set
Actual Time 8:26 AM AKST 4:01 PM AKST
Civil Twilight 7:38 AM AKST 4:49 PM AKST
Nautical Twilight 6:47 AM AKST 5:40 PM AKST
Astronomical Twilight 5:59 AM AKST 6:29 PM AKST
Moon 3:02 AM AKST (1/25) 11:08 AM AKST (1/25)
Length of Visible Light 9h 11m
Length of Day
7h 34m
Waning Crescent, 32% of the Moon is Illuminated
Jan 25
Waning Crescent
Jan 30
New
Feb 6
First Quarter
Feb 14
Full
Feb 22
Last Quarter

Hourly Weather History & Observations

Time (AKST) Temp. Windchill Dew Point Humidity Pressure Visibility Wind Dir Wind Speed Gust Speed Precip Events Conditions
12:53 AM 33.1 °F - 32.0 °F 96% 30.40 in 10.0 mi Calm Calm - N/A   Clear
1:53 AM 32.0 °F - 30.0 °F 92% 30.39 in 10.0 mi Calm Calm - N/A   Clear
2:53 AM 32.0 °F 28.7 °F 30.0 °F 92% 30.37 in 10.0 mi NNE 3.5 mph - N/A   Clear
3:53 AM 30.9 °F 26.2 °F 28.0 °F 89% 30.36 in 10.0 mi NNE 4.6 mph - N/A   Clear
4:53 AM 30.9 °F 26.2 °F 28.0 °F 89% 30.35 in 10.0 mi NE 4.6 mph - N/A   Clear
5:53 AM 30.9 °F 26.2 °F 28.0 °F 89% 30.32 in 10.0 mi NE 4.6 mph - N/A   Clear
6:53 AM 30.9 °F 27.5 °F 28.9 °F 92% 30.31 in 10.0 mi NE 3.5 mph - N/A   Clear
7:53 AM 30.9 °F - 28.9 °F 92% 30.31 in 10.0 mi Calm Calm - N/A   Clear
8:53 AM 30.9 °F - 28.9 °F 92% 30.30 in 10.0 mi Calm Calm - N/A   Clear
9:53 AM 30.9 °F 26.2 °F 28.9 °F 92% 30.29 in 10.0 mi NNE 4.6 mph - N/A   Clear
10:53 AM 33.1 °F 30.0 °F 30.0 °F 89% 30.30 in 10.0 mi NE 3.5 mph - N/A   Clear
11:53 AM 34.0 °F 28.8 °F 30.9 °F 89% 30.30 in 10.0 mi NNE 5.8 mph - N/A   Clear
12:53 PM 39.0 °F - 36.0 °F 89% 30.29 in 10.0 mi Calm Calm - N/A   Clear
1:53 PM 39.9 °F - 35.1 °F 83% 30.29 in 10.0 mi Calm Calm - N/A   Clear
2:53 PM 37.0 °F - 32.0 °F 82% 30.29 in 10.0 mi Calm Calm - N/A   Clear
3:53 PM 36.0 °F - 30.9 °F 82% 30.28 in 10.0 mi Calm Calm - N/A   Clear
4:53 PM 33.1 °F - 30.0 °F 89% 30.29 in 10.0 mi Calm Calm - N/A   Clear
5:53 PM 33.1 °F - 30.0 °F 89% 30.27 in 10.0 mi Calm Calm - N/A   Clear
6:53 PM 32.0 °F - 30.0 °F 92% 30.28 in 6.0 mi Calm Calm - N/A   Clear
7:53 PM 32.0 °F 26.4 °F 28.9 °F 88% 30.28 in 9.0 mi NE 5.8 mph - N/A   Clear
8:53 PM 30.9 °F 27.5 °F 28.9 °F 92% 30.30 in 10.0 mi NE 3.5 mph - N/A   Clear
9:53 PM 30.9 °F - 30.0 °F 96% 30.29 in 10.0 mi Calm Calm - N/A   Clear
10:53 PM 30.0 °F - 28.9 °F 96% 30.31 in 9.0 mi Calm Calm - N/A   Clear
11:53 PM 30.0 °F - 27.0 °F 88% 30.32 in 10.0 mi Calm Calm - N/A   Clear